This is the latest recevied weather packets stored in our database for station/object SR3WXA. If no packets are shown the sender has not sent any weather packets the latest 10 day(s).
| Time | Temp. | Humidity | Pressure | Rain* | Wind** | Luminosity | Snow |
|---|---|---|---|---|---|---|---|
| 1778090735 | 12.22° C | 86% | 1007 hPa | 0 mm | - | 26 W/m² | - |
| 1778090312 | 12.22° C | 86% | 1006.9 hPa | 0 mm | - | 25 W/m² | - |
| 1778089112 | 12.78° C | 85% | 1006.9 hPa | 0 mm | - | 42 W/m² | - |
| 1778088812 | 12.78° C | 85% | 1006.9 hPa | 0 mm | - | 49 W/m² | - |
| 1778088512 | 12.78° C | 85% | 1006.8 hPa | 0 mm | - | 53 W/m² | - |
| 1778088212 | 12.78° C | 84% | 1006.8 hPa | 0 mm | - | 54 W/m² | - |
| 1778087912 | 13.33° C | 84% | 1006.9 hPa | 0 mm | - | 47 W/m² | - |
| 1778085281 | 14.44° C | 82% | 1006.7 hPa | 0 mm | - | 279 W/m² | - |
| 1778085239 | 14.44° C | 82% | 1006.7 hPa | 0 mm | - | 279 W/m² | - |
| 1778084939 | 14.44° C | 82% | 1006.7 hPa | 0 mm | - | 229 W/m² | - |
| 1778084681 | 14.44° C | 83% | 1006.6 hPa | 0 mm | - | 243 W/m² | - |
| 1778084304 | 14.44° C | 84% | 1006.6 hPa | 0 mm | - | 251 W/m² | - |
| 1778083971 | 14.44° C | 84% | 1006.7 hPa | 0 mm | - | 257 W/m² | - |
| 1778083071 | 15° C | 82% | 1006.6 hPa | 0 mm | - | 58 W/m² | - |
| 1778081926 | 16.11° C | 79% | 1006.5 hPa | 0 mm | - | 334 W/m² | - |
| 1778080692 | 17.22° C | 78% | 1006.2 hPa | 0 mm | - | 297 W/m² | - |
| 1778079192 | 17.78° C | 77% | 1006.1 hPa | 0 mm | - | 83 W/m² | - |
| 1778077382 | 17.22° C | 82% | 1005.8 hPa | 0 mm | - | 638 W/m² | - |
| 1778076158 | 17.22° C | 78% | 1005.8 hPa | 0 mm | - | 125 W/m² | - |
| 1778074643 | 17.22° C | 78% | 1005.6 hPa | 0 mm | - | 123 W/m² | - |
| 1778074608 | 17.22° C | 78% | 1005.6 hPa | 0 mm | - | 123 W/m² | - |
| 1778074342 | 17.22° C | 77% | 1005.6 hPa | 0 mm | - | 81 W/m² | - |
| 1778074008 | 17.22° C | 77% | 1005.6 hPa | 0 mm | - | 105 W/m² | - |
| 1778073409 | 17.22° C | 76% | 1005.5 hPa | 0 mm | - | 62 W/m² | - |
| 1778070671 | 17.78° C | 72% | 1005.4 hPa | 0 mm | - | 192 W/m² | - |
* Rain latest hour (hover to see other rain measurements)
** Current wind speed in m/s (hover to see current wind gust speed)